Regional Weather Roundup
Issued by NWS Upton, NY

Current Version | Previous Version | Graphics & Text | Print | Product List | Glossary Off
Versions: 1 2 3 4 5 6 7 8 9 10 11 12 13 14 15 16 17 18 19 20 21 22 23 24 25 26 27 28 29 30 31 32 33 34 35 36 37 38 39 40 41 42 43 44 45 46 47 48 49 50

000
ASUS41 KOKX 262005
RWROKX

REGIONAL WEATHER ROUNDUP
NATIONAL WEATHER SERVICE NEW YORK NY
400 PM EDT TUE AUG 26 2014

NOTE: "FAIR" INDICATES FEW OR NO CLOUDS BELOW 12,000 FEET WITH NO
SIGNIFICANT WEATHER AND/OR OBSTRUCTIONS TO VISIBILITY.

NYZ071-072-176-178-NJZ106-104-262100-
NEW YORK CITY METRO AREA


CITY           SKY/WX    TMP DP  RH WIND       PRES   REMARKS
CENTRAL PARK   SUNNY     83  62  49 VRB6      30.13F
LAGUARDIA APRT MOSUNNY   84  61  45 S13       30.10F
KENNEDY INTL   MOSUNNY   81  63  54 S12       30.13F
NEWARK/LIBERTY MOSUNNY   85  61  44 SE10      30.10F
BRNX BOT. GARD   N/A     82  64  54 S15       30.12S
TETERBORO      SUNNY     87  63  44 S12       30.08F
$$

NYZ177-179-078>081-262100-
LONG ISLAND NEW YORK

CITY           SKY/WX    TMP DP  RH WIND       PRES   REMARKS
FARMINGDALE    CLOUDY    77  64  64 S7        30.13F
ISLIP          MOSUNNY   78  63  59 SE9       30.11F
SHIRLEY        SUNNY     80  60  50 S8        30.13F
WESTHAMPTON    SUNNY     78  58  49 S9        30.14F
MONTAUK POINT    N/A     76  63  64 VRB5      30.15F
$$

NYZ052-065-067-262100-
HUDSON VALLEY

CITY           SKY/WX    TMP DP  RH WIND       PRES   REMARKS
WHITE PLAINS   MOSUNNY   86  59  39 S6        30.11F
NEWBURGH       MOSUNNY   86  59  39 W8G14     30.14S
MONTGOMERY     MOSUNNY   86  57  37 VRB6      30.09F
POUGHKEEPSIE   MOSUNNY   88  60  38 S7        30.08F
ALBANY         MOSUNNY   85  62  46 SE8       30.07F
$$

NJZ001-105-106-008-010-013-015-019>022-104-262100-
NEW JERSEY

CITY           SKY/WX    TMP DP  RH WIND       PRES   REMARKS
NEWARK/LIBERTY MOSUNNY   85  61  44 SE10      30.10F
TETERBORO      SUNNY     87  63  44 S12       30.08F
CALDWELL       SUNNY     87  56  34 VRB3      30.10F
MORRISTOWN     MOSUNNY   88  55  33 SW7       30.10F
SOMERVILLE     SUNNY     89  59  36 CALM      30.08F
LINDEN         FAIR      89  62  39 S12       30.12F
SUSSEX         SUNNY     87  59  38 VRB6      30.12F
ANDOVER          N/A     85  59  41 NW5       30.13F
TRENTON        SUNNY     85  61  44 S5        30.10F
MILLVILLE      SUNNY     83  65  54 SE6       30.12F
ATLANTIC CITY  SUNNY     79  61  53 SE7       30.13F
WRIGHTSTOWN    LGT RAIN  86  64  48 SE9       30.08F
TOMS RIVER     SUNNY     82  61  47 SE7       30.13F
BELMAR         SUNNY     81  61  50 SE8       30.13F
$$

PAZ047>061-062-071-262100-
EASTERN PENNSYLVANIA

CITY           SKY/WX    TMP DP  RH WIND       PRES   REMARKS
PHILADELPHIA   MOSUNNY   89  60  37 SE5       30.10F
ALLENTOWN      MOSUNNY   85  61  44 W6        30.12F
SCRANTON       SUNNY     85  56  37 W10G17    30.12F
$$

CTZ002-004>006-009-010-012-RIZ004-006-007-MAZ004-011-015-262100-
SOUTHERN NEW ENGLAND
 IN CT

CITY           SKY/WX    TMP DP  RH WIND       PRES   REMARKS
BRADLEY INTL   MOSUNNY   89  60  37 W10G17    30.08F
HARTFORD       SUNNY     87  61  41 S6        30.08F
DANBURY        SUNNY     84  58  40 VRB3      30.12F
WTRBRY/OXFORD  MOSUNNY   84  61  45 SW3       30.16F
BRIDGEPORT     SUNNY     82  66  58 S5        30.11F
MERIDEN        MOSUNNY   86  65  49 S7        30.10F
NEW HAVEN      MOSUNNY   84  66  54 S8        30.11F
CHESTER        FAIR      81  63  54 S9        30.13F
GROTON         SUNNY     74  65  73 S9        30.12F
WILLIMANTIC    SUNNY     86  62  44 S6        30.10F

 IN RI

CITY           SKY/WX    TMP DP  RH WIND       PRES   REMARKS
PROVIDENCE     MOSUNNY   78  64  61 SE14      30.12F
BLOCK ISLAND   SUNNY     73  59  60 S12       30.15F
WESTERLY       SUNNY     75  60  59 S10       30.14F

 IN MA

CITY           SKY/WX    TMP DP  RH WIND       PRES   REMARKS
BOSTON         MOSUNNY   81  65  58 E13       30.07F
WORCESTER      SUNNY     83  54  36 SW8       30.13F
WESTFIELD      MOSUNNY   87  62  43 S8        30.08F
PROVINCETOWN   SUNNY     77  55  47 MISG      30.12F
NANTUCKET      SUNNY     70  58  65 S7        30.14F
$$

ANZ330-335-338-340-345-350-353-355-262100-
COASTAL MARINE OBSERVATIONS


STATION/POSITION TIME  SKY/WX   TEMP    WIND        PRES    VSBY  WAVE
                                AIR SEA DIR/SP/G                  HT/PER
                 (UTC)          (F)     (DEG/KT/KT) (MB)    (MI)  (FT/S)
NY HARB ENTRANCE NOT AVBL
4S FIRE IS       NOT AVBL
23SW MTP         2000                                 N/A           3/ 9
HUDSON CANYON    2000            72 73   40/  4/  6 1020.3          4/ 9
EXECUTION ROCKS  2000            81 77  120/  4/  6   N/A
WESTERN LI SOUND 2000            80     100/  6/  6   N/A           0
CENTRAL LI SOUND 1900            76 79  130/  6/  8   N/A           0
EASTERN LI SOUND 1900            74 69  150/  6/  8   N/A
ROBBINS REEF     2000            74     170/ 14/ 15   N/A
$$


>>>>>>>>>>>>>>>>>>>>>>>>>>>> KEY <<<<<<<<<<<<<<<<<<<<<<<<<<<
>                                                          <
>     SKY/WX - SKY CONDITION/PRESENT WEATHER               <
>     TMP    - TEMPERATURE IN FAHRENHEIT                   <
>     DP     - DEWPOINT IN FAHRENHEIT                      <
>     RH     - RELATIVE HUMIDITY IN PERCENT                <
>     WIND   - DIRECTION AND SPEED IN MPH                  <
>     PRES   - MEAN SEA LEVEL PRESSURE IN INCHES OF HG     <
>     WCI    - WIND CHILL INDEX                            <
>     VSB    - VISIBILITY IN MILES                         <
>     HX     - HEAT INDEX                                  <
>     TC     - TEMPERATURE IN CELSIUS                      <
>     VRB    - VARIABLE WIND DIRECTION                     <
>                                                          <
>>>>>>>>>>>>>>>>>>>>>>>>>>>> KEY <<<<<<<<<<<<<<<<<<<<<<<<<<<





USA.gov is the U.S. government's official web portal to all federal, state and local government web resources and services.